Voltar ao catálogo

STARLINK-32275

AtivoComunicaçõesVLEO
NORAD 60360·PAYLOAD·🇺🇸 United States

Lançado Aug 4, 2024 de Vandenberg Space Force Base

Loading…

Próximas Passagens (próximas 24 horas)

TLE

AtualizadoSource: CelesTrak SupGP

Época: Sep 14, 2026, 21:32 UTC

1 60360C 24138F   26257.89770833 -.00047995  00000+0 -15436-2 0  2573
2 60360  53.1575 149.2646 0001434  93.8400  34.6081 15.31721072    13

Acompanhe STARLINK-32275 em tempo real com AllMySat

Download on the App Store